Location: *
(44.3925°N, 5.4708°E)
Time: 22:06:53
(UTC+00:00)

Cosmos 2227 Rocket - Pass Details

Date: 18 September 2019
Orbit: 837 x 847 km, 71.0° (Epoch: 15 October)

Event Time Altitude Azimuth Distance (km) Brightness Sun altitude
Rises 20:44:18 0° 226° (SW) 3,384 5.4 -30.7°
Reaches altitude 10° 20:46:53 10° 234° (SW) 2,455 4.7 -31.0°
Maximum altitude 20:52:09 40° 303° (WNW) 1,220 3.4 -31.7°
Drops below altitude 10° 20:57:30 10° 13° (NNE) 2,475 4.9 -32.4°
Sets 21:00:07 0° 21° (NNE) 3,415 5.6 -32.8°
